Regional Weather Roundup
Issued by NWS

Home | Current Version | Previous Version | Graphics & Text | Print | Product List | Glossary On
Versions: 1 2 3 4 5 6 7 8 9 10 11 12 13 14 15 16 17 18 19 20 21 22 23 24 25 26 27 28 29 30 31 32 33 34 35 36 37 38 39 40 41 42 43 44 45 46 47 48 49 50
000
ASUS43 KOAX 301402
RWRNE

WEATHER ROUNDUP FOR NEBRASKA
NATIONAL WEATHER SERVICE OMAHA NE
900 AM CDT TUE AUG 30 2016

NOTES: SATELLITE DATA IS BEING USED TO AUGMENT CLOUD COVER ABOVE
       12000 FEET.
       "FAIR" INDICATES FEW OR NO CLOUDS BELOW 12,000 FEET WITH NO
       SIGNIFICANT WEATHER AND/OR OBSTRUCTIONS TO VISIBILITY.

  * THESE STATIONS DO NOT REPORT WEATHER SUCH AS RAIN...SNOW OR FOG.

NEZ001>004-019>022-054>056-301500-
NEBRASKA PANHANDLE

CITY           SKY/WX    TMP DP  RH WIND       PRES   REMARKS
SCOTTSBLUFF    SUNNY     62  57  83 NW6       30.29S
ALLIANCE       SUNNY     57  55  93 W5        30.28S
CHADRON        CLOUDY    58  55  90 W3        30.27S
SIDNEY         CLOUDY    60  57  89 NW3       30.30S
$$

NEZ057>060-069>072-079>082-301500-
SOUTHWEST NEBRASKA

CITY           SKY/WX    TMP DP  RH WIND       PRES   REMARKS
NORTH PLATTE   MOSUNNY   67  66  97 CALM      30.25S FOG
IMPERIAL       MOSUNNY   64  61  90 CALM      30.27R
LEXINGTON      CLOUDY    68  65  90 CALM      30.25S
MCCOOK         CLOUDY    66  65  96 E3        30.24S FOG
$$

NEZ005>010-023>029-035>040-094-301500-
NORTH CENTRAL NEBRASKA

CITY           SKY/WX    TMP DP  RH WIND       PRES   REMARKS
VALENTINE      CLOUDY    67  61  81 CALM      30.23S
AINSWORTH      MOSUNNY   66  65  97 SW3       30.24S
BROKEN BOW     CLOUDY    68  67  96 E3        30.25R FOG
O`NEILL        CLOUDY    69  66  89 SE3       30.23R
ORD            CLOUDY    69  66  90 CALM      30.21S FOG
THEDFORD       CLOUDY    68  64  88 CALM      30.26S
$$

NEZ041-046>049-061>064-073>077-083>087-301500-
SOUTH CENTRAL NEBRASKA

CITY           SKY/WX    TMP DP  RH WIND       PRES   REMARKS
GRAND ISLAND   CLOUDY    68  67  96 SE3       30.23S FOG
AURORA         CLOUDY    67  67 100 CALM      30.23S FOG
HASTINGS       MOSUNNY   69  66  90 S5        30.24R
HEBRON         CLOUDY    69  68  98 CALM      30.22S
HOLDREGE       DRIZZLE   67  65  95 CALM      30.24S
KEARNEY *      CLOUDY    70  64  83 CALM      30.23S
YORK           PTSUNNY   68  68 100 CALM      30.23S FOG
$$

NEZ011>018-030>034-042>045-301500-
NORTHEAST NEBRASKA

CITY           SKY/WX    TMP DP  RH WIND       PRES   REMARKS
NORFOLK        CLOUDY    69  66  90 CALM      30.21R
ALBION         CLOUDY    68  67  94 CALM      30.22S FOG
BLAIR          PTSUNNY   70  69  97 CALM      30.21S FOG
FREMONT        CLOUDY    69  68  96 CALM      30.21S
TEKAMAH        CLOUDY    70  67  90 CALM      30.22R
WAYNE          CLOUDY    69  68  96 E6        30.24R
$$

NEZ050>053-065>068-078-088>093-301500-
SOUTHEAST NEBRASKA

CITY           SKY/WX    TMP DP  RH WIND       PRES   REMARKS
LINCOLN        LGT RAIN  71  69  93 CALM      30.22S
OMAHA EPPLEY   CLOUDY    72  68  87 N5        30.20S
BEATRICE       CLOUDY    70  68  95 CALM      30.21S
FALLS CITY     LGT RAIN  70  70 100 N3        30.19S
NEBRASKA CITY  DRIZZLE   69  69 100 CALM      30.21S
PLATTSMOUTH    CLOUDY    70  69  99 CALM      30.21S
$$

NEZ044-045-051>053-067-301500-
OMAHA AREA

CITY           SKY/WX    TMP DP  RH WIND       PRES   REMARKS
OMAHA EPPLEY   CLOUDY    72  68  87 N5        30.20S
BLAIR          PTSUNNY   70  69  97 CALM      30.21S FOG
FREMONT        CLOUDY    69  68  96 CALM      30.21S
MILLARD        PTSUNNY   72  68  88 CALM      30.20S
OFFUTT AFB     PTSUNNY   71  70  95 CALM      30.20S FOG
PLATTSMOUTH    CLOUDY    70  69  99 CALM      30.21S
WAHOO          CLOUDY    69  68  94 CALM      30.21S FOG
$$




USA.gov is the U.S. government's official web portal to all federal, state and local government web resources and services.